Content
SEND FEEDBACK

Daily
Averages
Monthly
Summary
United States of America

MAYHILL, NEW MEXICO


Home > North America > United States > New Mexico
Elevation: 6736 feet     Latitude: 32 55N     Longitude: 105 28W

WEATHER
 
SELECT A DAY
Number of Records: 252,634;   Date Range: 1/1/95 - 10/20/14
 
SHARE

PRINT THIS DATA

[ ← Previous Day ]
WEATHER ALMANAC - FEBRUARY 13, 2013
[ Next Day → ]
[ °C ]   °F
Weather ElementAverageHighLow
Temperature34.7 °F51.8 °F (2:55 pm)20.3 °F (6:58 am)
Dewpoint7 °F12.2 °F (8:55 am)2.7 °F (8:58 pm)
Humidity34.3 %55 % (4:58 am)16 % (2:55 pm)
Barometer30.10 in30.17 in (7:58 am)30.04 in (1:58 pm)
Wind Speed6.6 mph11.5 mph (4:58 am)
Weather ElementAverage
Visibility10 mi
Wind DirectionSSW (217.1 °)

Weather ElementTotal
Precipitation---
Heating Degree Days29 (Base 65)
Averaged from 21 records on February 13, 2013
WEATHER CONDITIONS BREAKOUT
WIND DIRECTION BREAKOUT
WEATHER BY HOUR - FEBRUARY 13, 2013
[ °C ]   °F
Local TimeTemperatureDewpointHumidityBarometerVisibilityWind DirectionWind SpeedGust SpeedPrecipitationEventsConditions
1:58 AM20.7 °F4.5 °F50 %30.14 in10.0 miNNW (340°)10.4 mphClear
2:58 AM25.2 °F7.2 °F46 %30.12 in10.0 miNorth (10°)8.1 mphClear
3:58 AM21.6 °F6.1 °F51 %30.10 in10.0 miCalmClear
4:58 AM21.4 °F7.5 °F55 %30.11 in10.0 miNorth (360°)11.5 mphClear
5:58 AM23.2 °F8.1 °F52 %30.12 in10.0 miSSE (150°)3.5 mphClear
6:58 AM20.3 °F3.7 °F49 %30.14 in10.0 miCalmClear
7:58 AM23.4 °F5.2 °F46 %30.17 in10.0 miCalmClear
8:55 AM37.4 °F12.2 °F36 %30.16 in10.0 miNNW (340°)10.4 mphClear
9:55 AM41.0 °F10.4 °F29 %30.16 in10.0 miNorth (350°)10.4 mphClear
10:55 AM46.4 °F10.4 °F23 %30.15 in10.0 miNW (320°)11.5 mphClear
11:55 AM46.4 °F10.4 °F23 %30.13 in10.0 miWNW (300°)10.4 mphClear
12:59 PM50.0 °F8.6 °F19 %30.05 in10.0 miNW (320°)9.2 mphClear
1:58 PM50.2 °F7.0 °F17 %30.04 in10.0 miNW (310°)5.8 mphClear
2:55 PM51.8 °F6.8 °F16 %30.04 in10.0 miNNW (330°)4.6 mphClear
5:55 PM50.0 °F8.6 °F19 %30.04 in10.0 miNNW (330°)2.3 mphClear
6:58 PM42.6 °F6.4 °F23 %30.06 in10.0 miNorth (350°)4.6 mphClear
7:58 PM37.6 °F3.9 °F25 %30.08 in10.0 miNE (50°)8.1 mphClear
8:58 PM31.5 °F2.7 °F29 %30.06 in10.0 miNE (50°)10.4 mphClear
9:58 PM32.4 °F6.3 °F33 %30.07 in10.0 miWNW (300°)3.5 mphClear
10:58 PM28.4 °F5.9 °F39 %30.07 in10.0 miNNW (340°)8.1 mphClear
11:58 PM27.7 °F5.9 °F40 %30.05 in10.0 miNorth (10°)5.8 mphClear
Hourly data recorded from KHMN, located miles away from Mayhill, New Mexico







STORIES FROM OUR PARTNERS